User: anonymous   Login
Location: *
(51.5000°N, 0.1100°W)
Time: 11:55:58
(UTC+00:00)
Language:

Cosmos 1607 - Orbit

View from above orbital plane
View from above orbital plane
View from above satellite
View from above satellite

Ground track
Ground track

The orbit data is extracted from the following two-line orbital elements,

1 15378U 84112A   24200.92557725 -.00000032  00000-0  51036-4 0  9995
2 15378  64.9923  69.0350 0055412 233.9880 125.6036 13.83643408  8373
Epoch (UTC): 18 July 2024 22:12:49
Eccentricity: 0.0055412
inclination: 64.9923°
perigee height: 910 km
apogee height: 991 km
right ascension of ascending node: 69.0350°
argument of perigee: 233.9880°
revolutions per day: 13.83643408
mean anomaly at epoch: 125.6036°
orbit number at epoch: 837

The dashed part of the orbit path shows where the satellite is in the earth's shadow,  

DLR